Le nostre stazioni meteo in Italia

Pubblicità
Il mio iltempo24.it
Elphin, Gran Bretagna (99153): Temperatura & dewpoint: 17.08.2017 09:00:00 - 23.08.2017 09:00:00 (BST)Elphin, Gran Bretagna (99153): visibility: 17.08.2017 09:00:00 - 23.08.2017 09:00:00 (BST)Elphin, Gran Bretagna (99153): precipitazioni: 17.08.2017 09:00:00 - 23.08.2017 09:00:00 (BST)
Data & Tempo tt [°C] td [°C] vv [km] rr [mm]
23.08.2017 09:00:00 - - - -
23.08.2017 08:00:00 14,6 14,3 - 7,8
23.08.2017 07:00:00 14,6 14,2 - 1,2
23.08.2017 06:00:00 14,5 14,1 - 0,8
23.08.2017 05:00:00 14,7 14,0 - 0,0
23.08.2017 04:00:00 14,6 13,9 - 0,0
23.08.2017 03:00:00 14,7 13,9 - 0,0
23.08.2017 02:00:00 14,7 13,8 - 0,0
23.08.2017 01:00:00 14,8 13,8 - 0,0
23.08.2017 00:00:00 15,0 13,8 - 0,0
22.08.2017 23:00:00 15,2 14,0 - 0,0
22.08.2017 22:00:00 15,2 14,0 - 0,0
22.08.2017 21:00:00 15,6 14,2 - 0,0
22.08.2017 20:00:00 16,5 14,5 - 0,0
22.08.2017 19:00:00 17,2 14,7 - 0,0
22.08.2017 18:00:00 17,8 15,0 - 0,0
22.08.2017 17:00:00 17,6 15,0 - 0,2
22.08.2017 16:00:00 17,0 15,0 - 0,0
22.08.2017 15:00:00 16,6 15,1 - 0,2
22.08.2017 14:00:00 16,0 14,9 - 0,4
22.08.2017 13:00:00 16,1 14,3 - 0,0
22.08.2017 12:00:00 16,3 14,0 - 0,0
22.08.2017 11:00:00 14,9 13,6 - 0,0
22.08.2017 10:00:00 13,9 13,1 - 0,4
22.08.2017 09:00:00 13,3 12,6 - 0,2
22.08.2017 08:00:00 13,0 12,2 - 0,0
22.08.2017 07:00:00 12,8 12,2 - 0,2
22.08.2017 06:00:00 12,6 12,1 - 0,0
22.08.2017 05:00:00 12,7 11,7 - 0,0
22.08.2017 04:00:00 12,5 11,5 - 0,0
22.08.2017 03:00:00 12,9 11,6 - 0,0
22.08.2017 02:00:00 13,2 11,9 - 0,0
22.08.2017 01:00:00 13,2 11,8 - 0,0
22.08.2017 00:00:00 13,2 12,0 - 0,0
21.08.2017 23:00:00 13,2 11,9 - 0,0
21.08.2017 22:00:00 13,1 11,5 - 0,0
21.08.2017 21:00:00 13,3 11,6 - 0,0
21.08.2017 20:00:00 13,7 11,6 - 0,0
21.08.2017 19:00:00 14,2 11,3 - 0,0
21.08.2017 18:00:00 14,9 11,4 - 0,0
21.08.2017 17:00:00 15,6 11,5 - 0,0
21.08.2017 16:00:00 16,9 11,5 - 0,0
21.08.2017 15:00:00 16,9 11,0 - 0,0
21.08.2017 14:00:00 16,4 10,3 - 0,0
21.08.2017 13:00:00 16,7 10,7 - 0,0
21.08.2017 12:00:00 15,7 10,4 - 0,0
21.08.2017 11:00:00 14,7 10,3 - 0,0
21.08.2017 10:00:00 13,5 10,2 - 0,0
21.08.2017 09:00:00 12,1 10,0 - 0,0
21.08.2017 08:00:00 11,6 10,0 - 0,0
21.08.2017 07:00:00 10,2 9,2 - 0,0
21.08.2017 06:00:00 9,1 8,3 - 0,0
21.08.2017 05:00:00 9,3 8,5 - 0,0
21.08.2017 04:00:00 9,6 8,3 - 0,0
21.08.2017 03:00:00 9,3 8,1 - 0,0
21.08.2017 02:00:00 9,4 8,3 - 0,0
21.08.2017 01:00:00 10,1 8,6 - 0,0
21.08.2017 00:00:00 9,4 7,7 - 0,0
20.08.2017 23:00:00 9,4 7,4 - 0,0
20.08.2017 22:00:00 9,9 8,2 - 0,0
20.08.2017 21:00:00 10,8 8,0 - 0,0
20.08.2017 20:00:00 13,6 9,2 - 0,0
20.08.2017 19:00:00 14,2 9,4 - 0,0
20.08.2017 18:00:00 14,7 9,3 - 0,0
20.08.2017 17:00:00 14,3 8,9 - 0,0
20.08.2017 16:00:00 14,1 9,6 - 0,0
20.08.2017 15:00:00 13,6 9,7 - 0,0
20.08.2017 14:00:00 13,8 10,2 - 0,0
20.08.2017 13:00:00 13,3 10,8 - 0,0
20.08.2017 12:00:00 12,9 10,7 - 0,0
20.08.2017 11:00:00 11,8 10,8 - 0,4
20.08.2017 10:00:00 12,7 11,9 - 0,2
20.08.2017 09:00:00 11,4 11,2 - 0,8
20.08.2017 08:00:00 11,3 11,2 - 2,4
20.08.2017 07:00:00 11,1 10,8 - 0,4
20.08.2017 06:00:00 11,5 11,2 - 1,0
20.08.2017 05:00:00 11,1 10,9 - 2,4
20.08.2017 04:00:00 11,5 11,3 - 0,2
20.08.2017 03:00:00 11,6 11,4 - 2,6
20.08.2017 02:00:00 11,6 11,3 - 1,8
20.08.2017 01:00:00 11,9 11,6 - 4,6
20.08.2017 00:00:00 11,5 11,1 - 1,4
19.08.2017 23:00:00 12,0 11,1 - 0,0
19.08.2017 22:00:00 12,0 11,4 - 0,4
19.08.2017 21:00:00 11,8 11,5 - 2,6
19.08.2017 20:00:00 12,3 11,8 - 1,0
19.08.2017 19:00:00 13,0 11,4 - 0,0
19.08.2017 18:00:00 13,3 11,7 - 0,0
19.08.2017 17:00:00 13,3 11,8 - 0,0
19.08.2017 16:00:00 14,2 12,3 - 0,0
19.08.2017 15:00:00 13,7 11,0 - 0,2
19.08.2017 14:00:00 14,0 12,1 - 0,4
19.08.2017 13:00:00 14,0 11,8 - 0,2
19.08.2017 12:00:00 13,5 12,6 - 0,4
19.08.2017 11:00:00 13,4 12,5 - 0,0
19.08.2017 10:00:00 12,6 12,1 - 2,0
19.08.2017 09:00:00 12,5 11,7 - 0,2
19.08.2017 08:00:00 12,1 10,9 - 0,2
19.08.2017 07:00:00 12,3 10,6 - 0,0
19.08.2017 06:00:00 11,9 10,8 - 0,2
19.08.2017 05:00:00 11,7 10,4 - 0,0
19.08.2017 04:00:00 11,7 10,4 - 0,2
19.08.2017 03:00:00 11,8 10,3 - 1,8
19.08.2017 02:00:00 11,3 11,0 - 1,6
19.08.2017 01:00:00 11,7 10,9 - 0,0
19.08.2017 00:00:00 12,1 11,7 - 0,4
18.08.2017 23:00:00 12,1 11,7 - 1,0
18.08.2017 22:00:00 12,3 11,9 - 0,0
18.08.2017 21:00:00 12,5 11,7 - 0,6
18.08.2017 20:00:00 12,2 11,8 - 0,8
18.08.2017 19:00:00 12,0 11,6 - 1,0
18.08.2017 18:00:00 12,7 11,7 - 0,4
18.08.2017 17:00:00 12,6 11,5 - 0,2
18.08.2017 16:00:00 12,5 11,4 - 0,0
18.08.2017 15:00:00 12,2 10,3 - 0,0
18.08.2017 14:00:00 12,4 10,9 - -
18.08.2017 13:00:00 - - - -
18.08.2017 12:00:00 11,3 11,0 - 1,0
18.08.2017 11:00:00 10,4 10,0 - 3,4
18.08.2017 10:00:00 10,1 9,8 - 3,4
18.08.2017 09:00:00 11,3 10,7 - 2,6
18.08.2017 08:00:00 11,4 10,8 - 0,0
18.08.2017 07:00:00 10,5 10,0 - 0,0
18.08.2017 06:00:00 10,7 10,1 - 0,0
18.08.2017 05:00:00 10,7 10,1 - 0,2
18.08.2017 04:00:00 11,1 10,2 - 0,6
18.08.2017 03:00:00 11,4 10,1 - 0,2
18.08.2017 02:00:00 11,6 10,0 - 0,2
18.08.2017 01:00:00 12,0 9,8 - 0,0
18.08.2017 00:00:00 12,7 9,7 - 0,0
17.08.2017 23:00:00 11,8 10,3 - 0,0
17.08.2017 22:00:00 11,3 9,3 - 0,0
17.08.2017 21:00:00 13,3 9,2 - 0,0
17.08.2017 20:00:00 15,6 10,4 - 0,0
17.08.2017 19:00:00 15,8 11,4 - 0,0
17.08.2017 18:00:00 16,0 12,4 - 0,0
17.08.2017 17:00:00 15,1 10,7 - 0,0
17.08.2017 16:00:00 16,7 11,5 - 0,0
17.08.2017 15:00:00 16,6 11,7 - 0,0
17.08.2017 14:00:00 16,0 12,2 - 0,0
17.08.2017 13:00:00 14,4 13,5 - 0,8
17.08.2017 12:00:00 13,7 12,0 - 0,6
17.08.2017 11:00:00 15,9 11,2 - 0,0
17.08.2017 10:00:00 16,7 12,2 10 0,0
17.08.2017 09:00:00 14,9 10,1 - 0,0

tt = Temperatura
td = dewpoint
vv = visibility
rr = precipitazioni

Stazioni seguenti

WeatherPro
AMSI
MeteoEarth